Regional Weather Roundup
Issued by NWS

Home | Current Version | Previous Version | Graphics & Text | Print | Product List | Glossary On
Versions: 1 2 3 4 5 6 7 8 9 10 11 12 13 14 15 16 17 18 19 20 21 22 23 24 25 26 27 28
000
ASUS45 KSLC 170410
RWRUT

UTAH REGIONAL WEATHER ROUNDUP
NATIONAL WEATHER SERVICE SALT LAKE CITY UT
1000 PM MDT WED APR 16 2014

UTZ001>011-023>025-170500-

NORTHERN UTAH

CITY           SKY/WX    TMP DP  RH WIND       PRES   REMARKS
HILL AFB       CLEAR     45  13  27 S7        30.02R
LOGAN          CLEAR     43  22  43 E7        30.01R
OGDEN          CLEAR     46  17  31 S6        30.01R
PROVO AIRPORT  CLEAR     48  21  34 NW12      30.03R
SALT LAKE CITY PTCLDY    49  16  26 CALM      30.02R
VERNAL         PTCLDY    44  21  40 CALM      29.98R
WENDOVER       CLEAR     52  18  25 W6        30.00R
HEBER CITY     PTCLDY    39  14  35 E7        30.03R WCI  34
WEST JORDAN    CLEAR     43  19  39 SW6       30.03R

$$

UTZ012>022-026-027-170500-

SOUTHERN UTAH

CITY           SKY/WX    TMP DP  RH WIND       PRES   REMARKS
BRYCE CANYON   CLEAR     32  20  61 N7        30.07R WCI  26
CEDAR CITY     CLEAR     50  21  32 NE9       29.98R
MILFORD        CLEAR     45  19  35 NW6       29.99R
MOAB/CYNLANDS  CLEAR     48  20  32 W5        29.92R
PRICE          CLEAR     48  16  27 N12       30.00R
ST GEORGE      PTCLDY    70  25  18 NE22G30   29.85R
KANAB            N/A     54  27  35 NW12      29.98

$$

REGIONAL REPORTS     COLORADO/ARIZONA

CITY           SKY/WX    TMP DP  RH WIND       PRES   REMARKS
CRAIG, CO      PTCLDY    32  19  58 CALM      30.00R
GRAND JUNCTION CLEAR     41  24  51 CALM      29.94R
RIFLE          CLEAR     42  20  41 CALM      29.97R
MONTROSE       CLEAR     42  26  53 E8        30.01R
CORTEZ         CLEAR     40  23  50 CALM      29.99R
PAGE, AZ       CLEAR     61  29  29 E5        29.92R
GRAND CANYON   CLEAR     46  18  32 NE5       30.03R
KINGMAN        CLEAR     62  11  13 SE6       29.85R
FLAGSTAFF      PTCLDY    45  13  27 CALM      30.04R

$$

REGIONAL REPORTS    NEVADA/IDAHO/WYOMING

CITY           SKY/WX    TMP DP  RH WIND       PRES   REMARKS
LAS VEGAS, NV  PTCLDY    78  19  11 SE3       29.72R
ELY            CLEAR     44  24  45 NW5       30.02R
ELKO           MOCLDY    48  28  46 CALM      30.00R
POCATELLO, ID  CLEAR     45  13  27 S13       30.01R
BURLEY         CLEAR     44  19  36 W6        29.99R
EVANSTON, WY   CLEAR     37  12  35 W10       30.05R WCI  30
ROCK SPRINGS   PTCLDY    36   9  32 NW7       30.03R WCI  30

$$



USA.gov is the U.S. government's official web portal to all federal, state and local government web resources and services.